Location: Georgenberg
(48.1500°N, 16.2500°E)
Time: 14:10:52
(UTC+01:00)

N. Korean satellite - Pass Details

Date: 05 December 2022
Orbit: 407 x 441 km, 97.3° (Epoch: 05 February)

Event Time Altitude Azimuth Distance (km) Brightness Sun altitude
Rises 17:23:35 0° 209° (SSW) 2,459 10.9 -13.0°
Reaches altitude 10° 17:26:21 10° 235° (SW) 1,605 10.5 -13.4°
Maximum altitude 17:28:19 14° 270° (W) 1,364 10.0 -13.7°
Drops below altitude 10° 17:30:19 10° 305° (NW) 1,628 9.7 -14.1°
Sets 17:33:09 0° 330° (NNW) 2,519 10.4 -14.5°
